Weather History for KABY - November, 2012

Change the Weather History Date:

Friday, November 9, 2012

  Actual Average Record
Temperature  
Mean Temperature 53 °F 61 °F  
Max Temperature 72 °F 74 °F 89 °F (1986)
Min Temperature 33 °F 48 °F 22 °F (1976)
Degree Days  
Heating Degree Days 12 6  
Month to date heating degree days 67 44  
Since 1 July heating degree days 118 94  
Cooling Degree Days 0 1  
Month to date cooling degree days 7 15  
Year to date cooling degree days 2801 2518  
Growing Degree Days 2 (Base 50)    
Moisture  
Dew Point 36 °F    
Average Humidity 58    
Maximum Humidity 92    
Minimum Humidity 23    
Precipitation  
Precipitation 0.00 in - 0.02 in (2002)
Month to date precipitation 0.02  
Year to date precipitation 26.91  
Sea Level Pressure  
Sea Level Pressure 30.27 in    
Wind  
Wind Speed 1 mph (NW)    
Max Wind Speed 8 mph    
Max Gust Speed 15 mph    
Visibility 10 miles    
Events      
T = Trace of Precipitation, MM = Missing Value Source: NWS Daily Summary

Daily Weather History Graph

Daily Weather History Graph

Search for Another Location

Airport or City:

Trip Planner

Search our weather history database for the weather conditions in past years. The results will help you decide how hot, cold, wet, or windy it might be!

Date:

Astronomy

Nov. 09, 2012 Rise Set
Actual Time 6:59 AM EST 5:41 PM EST
Civil Twilight 6:34 AM EST 6:06 PM EST
Nautical Twilight 6:05 AM EST 6:35 PM EST
Astronomical Twilight 5:36 AM EST 7:04 PM EST
Moon 2:14 AM EST (11/9) 2:38 PM EST (11/9)
Length of Visible Light 11h 32m
Length of Day
10h 41m
Waning Crescent, 23% of the Moon is Illuminated
Nov 9
Waning Crescent
Nov 13
New
Nov 20
First Quarter
Nov 28
Full
Dec 6
Last Quarter

Hourly Weather History & Observations

Time (EST) Temp. Windchill Dew Point Humidity Pressure Visibility Wind Dir Wind Speed Gust Speed Precip Events Conditions
12:53 AM 39.9 °F - 36.0 °F 86% 30.23 in 10.0 mi Calm Calm - N/A   Clear
1:53 AM 39.0 °F - 36.0 °F 89% 30.23 in 10.0 mi Calm Calm - N/A   Clear
2:53 AM 37.9 °F - 35.1 °F 89% 30.24 in 10.0 mi Calm Calm - N/A   Clear
3:53 AM 36.0 °F - 34.0 °F 93% 30.24 in 10.0 mi Calm Calm - N/A   Clear
4:53 AM 36.0 °F - 33.1 °F 89% 30.25 in 10.0 mi Calm Calm - N/A   Clear
5:53 AM 35.1 °F - 32.0 °F 89% 30.26 in 9.0 mi Calm Calm - N/A   Clear
6:53 AM 34.0 °F - 30.9 °F 89% 30.28 in 8.0 mi Calm Calm - N/A   Clear
7:53 AM 37.0 °F - 34.0 °F 89% 30.30 in 8.0 mi Calm Calm - N/A   Clear
8:53 AM 46.9 °F - 39.9 °F 77% 30.32 in 8.0 mi Calm Calm - N/A   Clear
9:53 AM 59.0 °F - 39.0 °F 48% 30.34 in 8.0 mi North 3.5 mph - N/A   Clear
10:53 AM 64.9 °F - 37.0 °F 36% 30.34 in 10.0 mi Variable 3.5 mph - N/A   Clear
11:53 AM 66.9 °F - 37.0 °F 33% 30.31 in 10.0 mi Calm Calm - N/A   Clear
12:53 PM 69.1 °F - 36.0 °F 30% 30.28 in 10.0 mi Variable 5.8 mph - N/A   Clear
1:53 PM 71.1 °F - 34.0 °F 26% 30.25 in 10.0 mi Variable 3.5 mph - N/A   Clear
2:53 PM 71.1 °F - 33.1 °F 25% 30.23 in 10.0 mi WNW 4.6 mph - N/A   Clear
3:22 PM 71.6 °F - 33.8 °F 25% 30.23 in 10.0 mi Variable 3.5 mph - N/A   Clear
3:53 PM 71.1 °F - 33.1 °F 25% 30.22 in 10.0 mi Calm Calm - N/A   Clear
4:53 PM 70.0 °F - 30.9 °F 24% 30.22 in 10.0 mi Calm Calm - N/A   Clear
5:53 PM 61.0 °F - 39.0 °F 44% 30.24 in 10.0 mi Calm Calm - N/A   Clear
6:53 PM 55.0 °F - 37.0 °F 51% 30.25 in 10.0 mi Calm Calm - N/A   Clear
7:53 PM 50.0 °F - 37.9 °F 63% 30.26 in 10.0 mi Calm Calm - N/A   Clear
8:53 PM 48.0 °F - 37.9 °F 68% 30.27 in 10.0 mi Calm Calm - N/A   Clear
9:53 PM 46.0 °F - 39.0 °F 76% 30.28 in 10.0 mi Calm Calm - N/A   Clear
10:53 PM 44.1 °F 42.5 °F 37.9 °F 79% 30.29 in 10.0 mi West 3.5 mph - N/A   Clear
11:53 PM 43.0 °F - 37.9 °F 82% 30.29 in 9.0 mi Calm Calm - N/A   Clear